This is the latest recevied weather packets stored in our database for station/object KD4WLE. If no packets are shown the sender has not sent any weather packets the latest 10 day(s).
| Time | Temp. | Humidity | Pressure | Rain* | Wind** | Luminosity | Snow |
|---|---|---|---|---|---|---|---|
| 1777835915 | 24.44° C | 72% | 1017.9 hPa | 0 mm | - | 710 W/m² | - |
| 1777835612 | 24.44° C | 71% | 1017.9 hPa | 0 mm | - | 717 W/m² | - |
| 1777835310 | 24.44° C | 70% | 1017.9 hPa | 0 mm | - | 725 W/m² | - |
| 1777835007 | 23.89° C | 72% | 1018.5 hPa | 0 mm | - | 737 W/m² | - |
| 1777834704 | 24.44° C | 72% | 1018.2 hPa | 0 mm | - | 736 W/m² | - |
| 1777834400 | 24.44° C | 71% | 1018.2 hPa | 0 mm | - | 747 W/m² | - |
| 1777834100 | 23.89° C | 74% | 1018.3 hPa | 0 mm | - | 751 W/m² | - |
| 1777833797 | 24.44° C | 73% | 1018.3 hPa | 0 mm | - | 767 W/m² | - |
| 1777833492 | 23.89° C | 73% | 1018.5 hPa | 0 mm | - | 776 W/m² | - |
| 1777833190 | 24.44° C | 72% | 1018.5 hPa | 0 mm | - | 801 W/m² | - |
| 1777832887 | 24.44° C | 71% | 1018.7 hPa | 0 mm | - | 534 W/m² | - |
| 1777832586 | 24.44° C | 74% | 1018.7 hPa | 0 mm | - | 805 W/m² | - |
| 1777832282 | 24.44° C | 73% | 1018.8 hPa | 0 mm | - | 813 W/m² | - |
| 1777831980 | 25° C | 72% | 1018.6 hPa | 0 mm | - | 842 W/m² | - |
| 1777831675 | 23.89° C | 74% | 1018.7 hPa | 0 mm | - | 848 W/m² | - |
| 1777831374 | 23.89° C | 74% | 1018.6 hPa | 0 mm | - | 840 W/m² | - |
| 1777831070 | 24.44° C | 73% | 1018.5 hPa | 0 mm | - | 817 W/m² | - |
| 1777830768 | 23.89° C | 75% | 1018.8 hPa | 0 mm | - | 849 W/m² | - |
| 1777830464 | 24.44° C | 74% | 1018.8 hPa | 0 mm | - | 829 W/m² | - |
| 1777830162 | 24.44° C | 74% | 1018.9 hPa | 0 mm | - | 855 W/m² | - |
| 1777829863 | 23.89° C | 75% | 1018.8 hPa | 0 mm | - | 859 W/m² | - |
| 1777829559 | 23.89° C | 74% | 1018.7 hPa | 0 mm | - | 837 W/m² | - |
| 1777829256 | 23.89° C | 75% | 1019 hPa | 0 mm | - | 848 W/m² | - |
| 1777828953 | 23.89° C | 75% | 1018.7 hPa | 0 mm | - | 680 W/m² | - |
| 1777828649 | 23.89° C | 75% | 1018.9 hPa | 0 mm | - | 631 W/m² | - |
* Rain latest hour (hover to see other rain measurements)
** Current wind speed in m/s (hover to see current wind gust speed)